www.pogodaiklimat.ru
ПОГОДА в Монтауке
Время
и дата
04:54 22.03
05:54 22.03
06:54 22.03
07:54 22.03
08:54 22.03
09:54 22.03
10:54 22.03
11:54 22.03
12:54 22.03
13:54 22.03
14:54 22.03
15:54 22.03
16:54 22.03
17:54 22.03
18:54 22.03
19:54 22.03
20:54 22.03
21:54 22.03
22:54 22.03
23:54 22.03
00:54 23.03
01:54 23.03
02:54 23.03
03:54 23.03
04:54 23.03
05:54 23.03
06:54 23.03
07:54 23.03
08:54 23.03
09:54 23.03
10:54 23.03
11:54 23.03
12:54 23.03
13:54 23.03
14:54 23.03
15:54 23.03
16:54 23.03
17:54 23.03
18:54 23.03
19:54 23.03
20:54 23.03
21:54 23.03
22:54 23.03
23:54 23.03
00:54 24.03
01:54 24.03
02:54 24.03
03:54 24.03
Ветер
(напр.,м/с)
Видим. Явления Облачность Т
(С)
Тd
(С)
f
(%)
Тe
(С)
Тes
(С)
Комфортность P
(гПа)
Po
(гПа)
Тmin
(С)
Tmax
(С)
R
(мм)
R24
(мм)
S
(см)
ЮВ 2 н/о н/о +5.6 +2.2 79 +3 +3 1029.4 1029.1
штиль 0 н/о н/о +5.6 +2.8 82 +5 +5 1029.4 1029.1
З 3 н/о н/о +7.8 +3.9 76 +5 +5 1029.9 1029.8 +5.0 +7.8
З 2 н/о н/о +8.3 +3.9 74 +7 +7 1030.1 1029.8
штиль 0 н/о н/о +10.0 +2.8 61 +10 +10 1030.0 1029.8
нст 2 н/о н/о +9.4 +3.9 68 +8 +8 1030.1 1029.8
штиль 0 н/о н/о +10.0 +3.9 66 +10 +10 1029.5 1029.1
Ю 3 н/о н/о +10.6 +2.2 56 +9 +9 1028.7 1028.4
Ю 4
{8}
н/о н/о +10.6 +3.9 63 +8 +8 1028.1 1027.7 +7.8 +11.1
Ю 4
{8}
н/о н/о +10.6 +3.9 63 +8 +8 1027.6 1027.4
Ю 4 н/о н/о +10.6 +5.0 68 +8 +8 1027.2 1027.1
Ю 4
{8}
н/о н/о +10.0 +4.4 68 +8 +8 1026.8 1026.4
Ю 3 н/о н/о +9.4 +3.9 68 +7 +7 1026.1 1025.7
Ю 3 н/о н/о +9.4 +4.4 71 +7 +7 1025.5 1025.0
Ю 3 н/о н/о +8.9 +5.6 80 +6 +6 1025.0 1024.7 +8.9 +11.7
нст 3 н/о н/о +8.9 +6.1 83 +6 +6 1025.0 1024.7
нст 2 н/о н/о +8.3 +6.1 86 +6 +6 1024.4 1024.0
Ю 4 н/о н/о +8.9 +5.6 80 +6 +6 1023.4 1023.0
нст 2 н/о н/о +9.4 +5.6 77 +8 +8 1023.3 1023.0
Ю 2 н/о н/о +8.9 +6.1 83 +7 +7 1023.0 1022.7
Ю 3 н/о н/о +8.9 +6.7 86 +6 +6 1022.5 1022.3 +8.3 +9.4
Ю 3 н/о н/о +9.4 +7.2 86 +7 +7 1020.7 1020.3
ЮЗ 3 н/о н/о +9.4 +7.8 90 +7 +7 1019.8 1019.6
З 2 н/о н/о +9.4 +8.3 93 +8 +8 1019.5 1019.3
нст 2 н/о н/о +8.9 +8.3 96 +7 +7 1019.0 1018.6
нст 2 н/о н/о +7.8 +7.2 96 +6 +6 1017.9 1017.6
нст 3 н/о н/о +7.2 +6.7 97 +4 +4 1018.2 1017.9 +7.2 +10.0
нст 3 н/о н/о +7.2 +6.7 97 +4 +4 1017.0 1016.6
нст 3 н/о н/о +8.3 +7.8 97 +5 +5 1015.8 1015.6
ЮЗ 4
{8}
н/о н/о +10.6 +7.2 79 +8 +8 1014.8 1014.5
ЮЗ 4
{7}
н/о н/о +10.6 +6.7 77 +8 +8 1014.0 1013.9
нст 3 н/о н/о +10.6 +6.7 77 +9 +9 1013.5 1013.2
ЮЗ 3 н/о н/о +8.9 +6.1 83 +6 +6 1011.0 1010.8 +7.2 +11.7
ЮЗ 4
{8}
н/о н/о +8.3 +7.2 93 +5 +5 1010.6 1010.1
ЮЗ 5 н/о н/о +8.9 +7.8 93 +5 +5 1009.0 1008.8
ЮЗ 3 н/о н/о +8.9 +8.3 96 +6 +6 1007.9 1007.4 3.0
ЮЗ 4
{8}
н/о н/о +8.9 +7.8 93 +6 +6 1008.0 1007.8
ЮЗ 3 н/о н/о +10.0 +8.9 93 +8 +8 1007.2 1007.1
ЮЗ 4 н/о н/о +10.6 +8.9 89 +8 +8 1006.8 1006.4 +8.3 +10.6 3.0
ЮЗ 4 н/о н/о +10.0 +8.9 93 +7 +7 1006.8 1006.4
ЮЗ 3 н/о н/о +10.6 +8.9 89 +8 +8 1007.0 1006.8
ЮЗ 4 н/о н/о +11.7 +9.4 86 +9 +9 1007.4 1007.1
З 2 н/о н/о +8.9 +7.8 93 +7 +7 1007.8 1007.4
З 2 н/о н/о +10.6 +9.4 92 +9 +9 1007.7 1007.4
СЗ 3 н/о н/о +9.4 +7.2 86 +7 +7 1008.5 1008.1 +8.9 +11.7
СЗ 3 н/о н/о +8.9 +4.4 73 +7 +7 1009.0 1008.8
СЗ 3 н/о н/о +9.4 +2.2 61 +7 +7 1008.8 1008.5
СЗ 3 н/о н/о +8.3 +2.2 65 +6 +6 1010.1 1009.8
Местоположение метеостанции Montauk Airport: широта 41.0731 долгота -71.9233 высота над уровнем моря 2 м.
В архиве по умолчанию представлена погода в Монтауке за последние 1-2 суток. Обновление информации о фактической погоде в базе происходит ежечасно! Архивные данные за месяц целиком и за предыдущие месяцы Вы можете получить, выбрав интересующий диапазон дат из раскрывающегося списка и нажав кнопку "Ввод!".
Внимание! Архив погоды МЕТАР в базе сайта по станциям, не включенным в климатический монитор, хранится не более 60 дней. Нет смысла пытаться выбрать более раннюю дату.
*Определитесь, кто Вы:
Внимание! Время в таблицах - местное (без учета летнего времени). Для получения всемирного времени необходимо вычесть поправку, которая равна -5 ч.
Смотрите также архив погоды в соседних городах и на ближайших метеорологических станциях:
Партнеры нашего сайта:      
Пояснения к столбцам:
  • Ветер - указаны скорость ветра в м/с - средняя за 10 мин, порывы в срок и между сроками (в фигурных скобках) и направление, откуда дует ветер: С - северный,
  • СВ - северо-восточный, В - восточный, ЮВ - юго-восточный, Ю - южный, ЮЗ - юго-западный, З - западный, СЗ - северо-западный.
  • Видимость - горизонтальная дальность видимости в метрах или километрах. При видимости от 1 до 10 км при отсутствии осадков обычно наблюдается дымка, при ухудшении видимости до 1 км и менее - туман. В сухую погоду видимость может ухудшаться дымом, пылью или мглою.
  • Явления - указаны атмосферные явления, наблюдавшиеся в срок или в последний час перед сроком; фигурными скобками обозначены явления, наблюдавшиеся между сроками (за 1-3 часа до срока); квадратными скобками обозначены град или гололедные отложения с указанием их диаметра в мм.
  • Облачность - указаны через наклонную черту общая и нижняя облачность в баллах и высота нижней границы облаков в метрах; квадратными скобками обозначены формы облаков: Ci - перистые, Cs - перисто-слоистые, Cc - перисто-кучевые, Ac - высококучевые, As - высокослоистые, Sc - слоисто-кучевые, Ns - слоисто-дождевые, Cu - кучевые, Cb - кучево-дождевые. Подробнее классификацию облаков см. в Атласе облаков (PDF).
  • T - Температура воздуха - температура, измеренная на высоте 2 м над землей.
  • Td - Температура точки росы - температура, при понижении до которой содержащийся в воздухе водяной пар достигнет насыщения.
  • f - Относительная влажность воздуха - влажноcть воздуха, измеренная на высоте 2 м над землей.
  • Te - Эффективная температура - температура, которую ощущает одетый по сезону человек в тени. Характеристика душности погоды. При расчете учитывается влияние влажности воздуха и скорости ветра на теплоощущения человека.
  • Tes - Эффективная температура на солнце - температура, которую ощущает человек, с поправкой на солнечный нагрев. Характеристика знойности погоды. Зависит от высоты солнца над горизонтом, облачности и скорости ветра. Ночью, в пасмурную погоду, а также при ветре 12 м/с и более поправка равна нулю.
  • P - Атмосферное давление - приведенное к уровню моря атмосферное давление.
  • Po - Атмосферное давление - измеренное на уровне метеостанции атмосферное давление.
  • Tmin - Минимальная температура - минимум температуры воздуха на высоте 2 м над землей.
  • Tmax - Максимальная температура - максимум температуры воздуха на высоте 2 м над землей.
  • R - Количество осадков - Количество выпавших осадков за период времени, мм. При наведении курсора мыши на число - период времени, за который выпало указанное количество осадков.
  • R24 - Количество осадков - Количество выпавших осадков за 24 часа, мм.
  • S - Снежный покров - Высота снежного покрова, см. При наведении курсора мыши на число - состояние снежного покрова и степень покрытия местности в баллах.